Regional Weather Roundup
Issued by NWS Spokane, WA

Home | Current Version | Previous Version | Text Only | Print | Product List | Glossary On
Versions: 1 2 3 4 5 6 7 8 9 10 11 12 13 14 15 16 17 18 19 20 21 22 23 24 25 26 27 28 29 30 31 32 33 34 35 36 37 38 39 40 41 42 43 44 45 46 47 48 49 50
000
NZUS01 KOTX 261910
RWROTX

Eastern Washington/Northern Idaho Roundup
National Weather Service, Spokane WA
1200 PM PDT TUE SEP 26 2017

Note: "fair" indicated few or no clouds below 12,000 feet with no
significant weather and/or obstructions to visibility.

...Northeast Washington and Northern Idaho Panhandle...

CITY           SKY/WX    TMP DP  RH WIND       PRES   REMARKS
Spokane Intl   MOSUNNY   66  47  50 S6        30.21S
Spokane Downto SUNNY     67  48  50 CALM      30.21S
Coeur d Alene  SUNNY     65  47  52 CALM      30.22R
Deer Park      SUNNY     65  47  52 VRB6      30.21S
Sandpoint      SUNNY     63  46  55 E7        30.20F
Bonners Ferry  CLOUDY    63  46  55 SW5       30.21S

...Southeast Washington and southern Idaho Panhandle...

CITY           SKY/WX    TMP DP  RH WIND       PRES   REMARKS
Walla Walla    MOSUNNY   70  51  51 W7        30.17F
Pullman/Moscow SUNNY     67  45  45 SE6       30.22F
Lewiston       SUNNY     68  49  50 N3        30.19F
Lowell           N/A     67  49  52 N3        30.18F
Grangeville    FAIR      61  45  55 NE5       30.23S

...Columbia Basin...

CITY           SKY/WX    TMP DP  RH WIND       PRES   REMARKS
Ephrata        SUNNY     71  43  36 VRB3      30.17F
Moses Lake     SUNNY     68  47  46 CALM      30.18F
Pasco          SUNNY     72  50  45 VRB3      30.17F
Richland       CLEAR     73  51  46 CALM      30.16F
Hermiston      SUNNY     70  52  52 VRB3      30.16F
Pendleton      MOSUNNY   69  49  48 CALM      30.17F

...East Slopes Cascades...

CITY           SKY/WX    TMP DP  RH WIND       PRES   REMARKS
The Dalles     SUNNY     70  53  54 CALM      30.15F
Yakima         SUNNY     70  48  45 SW3       30.18F
Ellensburg     SUNNY     68  48  48 CALM      30.19F
Wenatchee      SUNNY     66  46  48 CALM      30.17F
Omak           SUNNY     71  48  43 N8        30.18F

...Southern British Columbia...

CITY           SKY/WX    TMP DP  RH WIND       PRES   REMARKS
Penticton      MOSUNNY   68  50  52 N6        30.17F
Castlegar      PTSUNNY   63  46  55 N3        30.19F
Osoyoos          N/A     66  48  52 S2          N/A
Creston          N/A     61  48  63 NW3         N/A

...Western Montana...

CITY           SKY/WX    TMP DP  RH WIND       PRES   REMARKS
Kalispell      CLEAR     61  48  62 VRB5      30.21S
Missoula       SUNNY     60  45  57 S6        30.22F

...Neighboring Cities...

CITY           SKY/WX    TMP DP  RH WIND       PRES   REMARKS
Seattle        MOSUNNY   67  54  63 NE7       30.19F
Portland       MOSUNNY   68  56  65 W10       30.13F
Boise          SUNNY     67  37  33 CALM      30.17F
Great Falls    CLOUDY    65  37  35 W10       30.15S
Calgary        MOSUNNY   66  39  37 N9        30.13S



USA.gov is the U.S. government's official web portal to all federal, state and local government web resources and services.